Location: Forli
(44.2227°N, 12.0407°E)
Time: 16:23:14
(UTC+02:00)

PCSat - Visible Passes

Search period start: 13 April 2026 00:00
Search period end: 23 April 2026 00:00
Orbit: 780 x 790 km, 67.1° (Epoch: 13 April)

Date Brightness Start Highest point End Pass type
(mag) Time Alt. Az. Time Alt. Az. Time Alt. Az.
13 Apr 11.3 00:39:10 10° NNW 00:42:26 28° NNE 00:42:26 28° NNE visible
13 Apr 12.0 02:22:28 10° NW 02:23:02 13° NW 02:23:02 13° NW visible
14 Apr 11.3 00:07:01 10° NNW 00:10:44 26° NNE 00:10:44 26° NNE visible
14 Apr 11.7 01:49:56 10° NW 01:51:20 18° NW 01:51:20 18° NW visible
14 Apr 11.4 23:34:54 10° N 23:38:59 21° NE 23:39:03 21° NE visible
15 Apr 11.4 01:17:29 10° NW 01:19:39 25° NW 01:19:39 25° NW visible
15 Apr 11.6 23:02:51 10° N 23:06:20 17° NE 23:07:24 16° NE visible
16 Apr 11.1 00:45:06 10° NNW 00:48:00 33° NNW 00:48:00 33° NNW visible
16 Apr 11.8 22:30:57 10° N 22:33:38 14° NNE 22:35:47 11° ENE visible
17 Apr 10.8 00:12:47 10° NNW 00:16:23 39° N 00:16:23 39° N visible
17 Apr 12.2 01:56:54 10° WNW 01:56:59 10° WNW 01:56:59 10° WNW visible
17 Apr 12.0 21:59:23 10° NNE 22:00:52 11° NNE 22:02:21 10° NE visible
17 Apr 10.6 23:40:31 10° NNW 23:44:47 39° NNE 23:44:47 39° NNE visible
18 Apr 11.8 01:24:05 10° NW 01:25:23 16° WNW 01:25:23 16° WNW visible
18 Apr 10.7 23:08:18 10° NNW 23:13:09 32° NE 23:13:12 32° NE visible
19 Apr 11.4 00:51:28 10° NW 00:53:48 24° WNW 00:53:48 24° WNW visible
19 Apr 11.0 22:36:09 10° NNW 22:40:36 25° NE 22:41:39 23° ENE visible
20 Apr 10.8 00:18:57 10° NW 00:22:15 37° NW 00:22:15 37° NW visible
20 Apr 11.4 22:04:03 10° N 22:07:58 20° NE 22:10:07 16° ENE visible
20 Apr 10.1 23:46:32 10° NNW 23:50:43 55° NW 23:50:43 55° NW visible
21 Apr 11.6 21:32:03 10° N 21:35:17 16° NE 21:38:31 10° ENE visible
21 Apr 9.7 23:14:10 10° NNW 23:19:13 68° NNE 23:19:13 68° NNE visible
22 Apr 11.9 00:58:45 10° WNW 00:59:50 13° WNW 00:59:50 13° WNW visible
22 Apr 11.8 21:00:13 10° N 21:02:34 13° NNE 21:04:54 10° ENE visible
22 Apr 9.9 22:41:52 10° NNW 22:47:10 51° NE 22:47:45 49° ENE visible
